Location: Eschertshofen
(49.3064°N, 11.5756°E)
Time: 14:40:09
(UTC+00:00)

Cosmos 990 Rocket - Pass Details

Date: 18 September 2020
Orbit: 746 x 769 km, 74.0° (Epoch: 27 October)

Event Time Altitude Azimuth Distance (km) Brightness Sun altitude
Rises 17:57:43 0° 198° (SSW) 3,179 7.3 -7.0°
Reaches altitude 10° 18:00:03 10° 197° (SSW) 2,258 6.5 -7.4°
Maximum altitude 18:05:10 81° 111° (ESE) 763 3.9 -8.2°
Drops below altitude 10° 18:10:19 10° 25° (NNE) 2,277 6.3 -9.0°
Sets 18:12:42 0° 25° (NNE) 3,208 7.1 -9.4°
